Terminal Aerodrome Forecast
Issued by NWS

Home | Current Version | Previous Version | Text Only | Print | Product List | Glossary Off
Versions: 1 2 3 4 5 6 7 8 9 10 11 12 13 14 15 16 17 18 19 20 21 22

508
FTUS42 KMHX 031141 AAC
TAFPGV
TAF AMD
KPGV 031141Z 0312/0412 22005KT 6SM SHRA OVC025
      TEMPO 0312/0313 3SM RA OVC015
     FM031600 22009KT P6SM BKN040
     FM032200 21009KT P6SM VCTS SCT040CB BKN200
     FM040500 VRB03KT P6SM OVC050
     FM040700 00000KT 3SM BR SCT005 BKN015
      AMD LTD TO CLD VIS AND WIND=

USA.gov is the U.S. government's official web portal to all federal, state and local government web resources and services.